Dades meteomassalio
Diari Summary for Maig 25, 2017 Units:  Metric    English   Both
« Previous Day
Next Day »
Diari Semanal Mensual Anual Personalitzat
  Maxima: Minima: Mijana:
Temperatura: 33.8 °C 12.3 °C 24.3 °C
Rosada: 10.1 °C 5.2 °C 7.4 °C
Humitat: 66 % 18 % 38 %
Velocitat del vent: 24.1 km/h 0.0 km/h 5.2 km/h
Racha vent: 24.1 km/h - -
Vent:- - ESE
Pressio: 1016.8 hPa 1010.4 hPa -
Pluja: 0.0 mm    
Historical Graphs
 
 
Tabular Data for Maig 25, 2017
Time Temperature Dew Point Pressure Wind Wind Speed Wind Gust Humidity Rainfall Rate (Hourly) solar Conditions
00:02 20.7 °C 9.0 °C 1016.5 hPa ENE 5.6 km/h 5.6 km/h 47 % 0.0 mm 0.0 W/m2 CLR
00:07 20.7 °C 8.7 °C 1016.5 hPa Calm     46 % 0.0 mm 0.0 W/m2 CLR
00:12 20.8 °C 8.4 °C 1016.5 hPa Calm     45 % 0.0 mm 0.0 W/m2 CLR
00:13 20.8 °C 8.4 °C 1016.5 hPa Calm     45 % 0.0 mm 0.0 W/m2 CLR
00:18 20.8 °C 8.8 °C 1016.5 hPa Calm     46 % 0.0 mm 0.0 W/m2 CLR
00:23 20.8 °C 8.4 °C 1016.5 hPa Calm     45 % 0.0 mm 0.0 W/m2 CLR
00:28 20.7 °C 8.0 °C 1016.5 hPa Calm     44 % 0.0 mm 0.0 W/m2 CLR
00:33 20.6 °C 7.9 °C 1016.8 hPa Calm     44 % 0.0 mm 0.0 W/m2 CLR
00:38 20.6 °C 8.2 °C 1016.8 hPa Calm     45 % 0.0 mm 0.0 W/m2 CLR
00:43 20.5 °C 8.2 °C 1016.8 hPa Calm     45 % 0.0 mm 0.0 W/m2 CLR
00:48 20.4 °C 8.1 °C 1016.8 hPa Calm     45 % 0.0 mm 0.0 W/m2 CLR
00:54 20.2 °C 8.2 °C 1016.8 hPa Calm     46 % 0.0 mm 0.0 W/m2 CLR
01:04 19.6 °C 8.0 °C 1016.8 hPa Calm     47 % 0.0 mm 0.0 W/m2 CLR
01:09 19.4 °C 8.2 °C 1016.5 hPa Calm     48 % 0.0 mm 0.0 W/m2 CLR
01:14 19.2 °C 7.9 °C 1016.5 hPa Calm     48 % 0.0 mm 0.0 W/m2 CLR
01:19 18.9 °C 8.2 °C 1016.8 hPa Calm     50 % 0.0 mm 0.0 W/m2 CLR
01:24 18.6 °C 8.3 °C 1016.5 hPa Calm     51 % 0.0 mm 0.0 W/m2 CLR
01:29 18.3 °C 8.0 °C 1016.8 hPa Calm     51 % 0.0 mm 0.0 W/m2 CLR
01:34 18.2 °C 8.2 °C 1016.5 hPa Calm     52 % 0.0 mm 0.0 W/m2 CLR
01:39 17.9 °C 7.9 °C 1016.5 hPa Calm     52 % 0.0 mm 0.0 W/m2 CLR
01:44 17.7 °C 7.9 °C 1016.5 hPa Calm     53 % 0.0 mm 0.0 W/m2 CLR
01:49 17.4 °C 8.1 °C 1016.5 hPa Calm     54 % 0.0 mm 0.0 W/m2 CLR
01:54 17.2 °C 7.8 °C 1016.5 hPa Calm     54 % 0.0 mm 0.0 W/m2 CLR
01:59 17.0 °C 7.9 °C 1016.5 hPa Calm     55 % 0.0 mm 0.0 W/m2 CLR
02:04 16.8 °C 7.9 °C 1016.5 hPa Calm     56 % 0.0 mm 0.0 W/m2 CLR
02:09 16.4 °C 7.9 °C 1016.5 hPa Calm     57 % 0.0 mm 0.0 W/m2 CLR
02:14 16.2 °C 7.6 °C 1016.5 hPa Calm     57 % 0.0 mm 0.0 W/m2 CLR
02:19 16.0 °C 7.7 °C 1016.5 hPa Calm     58 % 0.0 mm 0.0 W/m2 CLR
02:24 15.8 °C 7.6 °C 1016.5 hPa Calm     58 % 0.0 mm 0.0 W/m2 CLR
02:29 15.7 °C 7.7 °C 1016.5 hPa Calm     59 % 0.0 mm 0.0 W/m2 CLR
02:34 15.6 °C 7.6 °C 1016.5 hPa Calm     59 % 0.0 mm 0.0 W/m2 CLR
02:39 15.5 °C 7.5 °C 1016.5 hPa Calm     59 % 0.0 mm 0.0 W/m2 CLR
02:44 15.2 °C 7.5 °C 1016.5 hPa Calm     60 % 0.0 mm 0.0 W/m2 CLR
02:49 15.1 °C 7.4 °C 1016.5 hPa Calm     60 % 0.0 mm 0.0 W/m2 CLR
02:54 15.1 °C 7.4 °C 1016.1 hPa Calm     60 % 0.0 mm 0.0 W/m2 CLR
02:59 15.1 °C 7.6 °C 1016.1 hPa Calm     61 % 0.0 mm 0.0 W/m2 CLR
03:04 14.9 °C 7.5 °C 1016.1 hPa Calm     61 % 0.0 mm 0.0 W/m2 CLR
03:09 14.8 °C 7.4 °C 1016.1 hPa Calm     61 % 0.0 mm 0.0 W/m2 CLR
03:14 14.8 °C 7.3 °C 1016.1 hPa Calm     61 % 0.0 mm 0.0 W/m2 CLR
03:19 14.7 °C 7.3 °C 1016.1 hPa Calm     61 % 0.0 mm 0.0 W/m2 CLR
03:24 14.6 °C 7.1 °C 1016.1 hPa Calm     61 % 0.0 mm 0.0 W/m2 CLR
03:29 14.4 °C 7.2 °C 1016.1 hPa Calm     62 % 0.0 mm 0.0 W/m2 CLR
03:34 14.3 °C 7.1 °C 1016.1 hPa Calm     62 % 0.0 mm 0.0 W/m2 CLR
03:39 14.2 °C 7.1 °C 1015.8 hPa Calm     62 % 0.0 mm 0.0 W/m2 CLR
03:44 14.2 °C 7.1 °C 1016.1 hPa Calm     62 % 0.0 mm 0.0 W/m2 CLR
03:49 14.2 °C 7.0 °C 1015.8 hPa Calm     62 % 0.0 mm 0.0 W/m2 CLR
03:54 14.1 °C 6.9 °C 1015.8 hPa Calm     62 % 0.0 mm 0.0 W/m2 CLR
03:59 14.1 °C 6.9 °C 1015.8 hPa Calm     62 % 0.0 mm 0.0 W/m2 CLR
04:04 14.1 °C 6.9 °C 1015.8 hPa Calm     62 % 0.0 mm 0.0 W/m2 CLR
04:09 13.9 °C 6.8 °C 1015.8 hPa Calm     62 % 0.0 mm 0.0 W/m2 CLR
04:14 13.8 °C 6.7 °C 1015.8 hPa Calm     62 % 0.0 mm 0.0 W/m2 CLR
04:19 13.7 °C 6.8 °C 1015.8 hPa Calm     63 % 0.0 mm 0.0 W/m2 CLR
04:24 13.7 °C 6.7 °C 1015.8 hPa Calm     63 % 0.0 mm 0.0 W/m2 CLR
04:29 13.5 °C 6.6 °C 1015.8 hPa Calm     63 % 0.0 mm 0.0 W/m2 CLR
04:34 13.4 °C 6.8 °C 1015.8 hPa Calm     64 % 0.0 mm 0.0 W/m2 CLR
04:39 13.4 °C 6.7 °C 1015.8 hPa Calm     64 % 0.0 mm 0.0 W/m2 CLR
04:44 13.4 °C 6.7 °C 1015.8 hPa Calm     64 % 0.0 mm 0.0 W/m2 CLR
04:49 13.4 °C 6.7 °C 1015.8 hPa Calm     64 % 0.0 mm 0.0 W/m2 CLR
04:54 13.3 °C 6.7 °C 1015.8 hPa Calm     64 % 0.0 mm 0.0 W/m2 CLR
04:59 13.3 °C 6.6 °C 1015.8 hPa Calm     64 % 0.0 mm 0.0 W/m2 CLR
05:04 13.2 °C 6.6 °C 1015.8 hPa Calm     64 % 0.0 mm 0.0 W/m2 CLR
05:09 13.1 °C 6.4 °C 1015.8 hPa Calm     64 % 0.0 mm 0.0 W/m2 CLR
05:14 13.1 °C 6.4 °C 1015.8 hPa Calm     64 % 0.0 mm 0.0 W/m2 CLR
05:19 13.1 °C 6.4 °C 1015.8 hPa Calm     64 % 0.0 mm 0.0 W/m2 CLR
05:24 13.1 °C 6.4 °C 1015.8 hPa Calm     64 % 0.0 mm 0.0 W/m2 CLR
05:29 12.9 °C 6.5 °C 1015.8 hPa Calm     65 % 0.0 mm 0.0 W/m2 CLR
05:34 12.8 °C 6.3 °C 1015.8 hPa Calm     65 % 0.0 mm 0.0 W/m2 CLR
05:39 12.7 °C 6.5 °C 1015.8 hPa Calm     66 % 0.0 mm 0.0 W/m2 CLR
05:44 12.6 °C 6.4 °C 1015.8 hPa Calm     66 % 0.0 mm 0.0 W/m2 CLR
05:49 12.7 °C 6.3 °C 1015.8 hPa Calm     65 % 0.0 mm 0.0 W/m2 CLR
05:54 12.8 °C 6.1 °C 1015.8 hPa Calm     64 % 0.0 mm 0.0 W/m2 CLR
05:59 12.8 °C 6.2 °C 1015.8 hPa Calm     64 % 0.0 mm 0.0 W/m2 CLR
06:04 12.8 °C 6.2 °C 1015.8 hPa Calm     64 % 0.0 mm 0.0 W/m2 CLR
06:09 12.9 °C 6.2 °C 1015.8 hPa Calm     64 % 0.0 mm 0.0 W/m2 CLR
06:14 12.9 °C 6.0 °C 1015.8 hPa Calm     63 % 0.0 mm 0.0 W/m2 CLR
06:19 12.9 °C 6.2 °C 1015.8 hPa Calm     64 % 0.0 mm 0.0 W/m2 CLR
06:24 12.8 °C 6.1 °C 1015.8 hPa Calm     64 % 0.0 mm 0.0 W/m2 OVC
06:29 12.7 °C 6.1 °C 1015.8 hPa Calm     64 % 0.0 mm 0.0 W/m2 OVC
06:34 12.6 °C 6.0 °C 1015.8 hPa Calm     64 % 0.0 mm 5.0 W/m2 OVC
06:39 12.6 °C 6.2 °C 1015.8 hPa Calm     65 % 0.0 mm 7.0 W/m2 BKN
06:44 12.4 °C 6.3 °C 1015.8 hPa Calm     66 % 0.0 mm 9.0 W/m2 BKN
06:49 12.3 °C 6.2 °C 1015.8 hPa Calm     66 % 0.0 mm 11.0 W/m2 BKN
06:54 12.4 °C 6.2 °C 1015.8 hPa Calm     66 % 0.0 mm 14.0 W/m2 BKN
06:59 12.4 °C 6.1 °C 1015.8 hPa Calm     65 % 0.0 mm 16.0 W/m2 BKN
07:04 12.5 °C 6.1 °C 1015.8 hPa Calm     65 % 0.0 mm 19.0 W/m2 BKN
07:09 12.6 °C 6.2 °C 1015.8 hPa Calm     65 % 0.0 mm 26.0 W/m2 BKN
07:14 12.7 °C 6.1 °C 1015.8 hPa Calm     64 % 0.0 mm 33.0 W/m2 BKN
07:19 12.8 °C 6.1 °C 1015.8 hPa Calm     64 % 0.0 mm 47.0 W/m2 SCT
07:24 13.0 °C 6.3 °C 1016.1 hPa Calm     64 % 0.0 mm 58.0 W/m2 SCT
07:29 13.3 °C 6.4 °C 1016.1 hPa Calm     63 % 0.0 mm 70.0 W/m2 FEW
07:34 13.7 °C 6.5 °C 1016.1 hPa Calm     62 % 0.0 mm 84.0 W/m2 FEW
07:39 13.9 °C 6.6 °C 1015.8 hPa Calm     61 % 0.0 mm 97.0 W/m2 FEW
07:45 14.3 °C 6.9 °C 1016.1 hPa Calm     61 % 0.0 mm 114.0 W/m2 CLR
07:50 14.6 °C 6.7 °C 1015.8 hPa Calm     59 % 0.0 mm 130.0 W/m2 CLR
07:55 15.0 °C 7.1 °C 1015.8 hPa Calm     59 % 0.0 mm 146.0 W/m2 CLR
08:00 15.3 °C 7.1 °C 1015.8 hPa Calm     58 % 0.0 mm 163.0 W/m2 CLR
08:05 15.6 °C 7.1 °C 1015.8 hPa Calm     57 % 0.0 mm 185.0 W/m2 CLR
08:10 15.9 °C 7.2 °C 1015.8 hPa Calm     56 % 0.0 mm 202.0 W/m2 CLR
08:15 16.4 °C 7.3 °C 1015.8 hPa Calm     55 % 0.0 mm 218.0 W/m2 CLR
08:20 16.8 °C 7.7 °C 1015.8 hPa Calm     55 % 0.0 mm 234.0 W/m2 CLR
08:25 17.2 °C 7.8 °C 1015.8 hPa Calm     54 % 0.0 mm 253.0 W/m2 CLR
08:30 17.8 °C 7.8 °C 1015.8 hPa Calm     52 % 0.0 mm 269.0 W/m2 CLR
08:35 18.2 °C 7.6 °C 1015.8 hPa Calm     50 % 0.0 mm 285.0 W/m2 CLR
08:40 18.8 °C 7.6 °C 1015.8 hPa Calm     48 % 0.0 mm 299.0 W/m2 CLR
08:45 19.4 °C 7.8 °C 1015.8 hPa Calm     47 % 0.0 mm 318.0 W/m2 CLR
08:50 19.8 °C 8.2 °C 1015.5 hPa Calm     47 % 0.0 mm 334.0 W/m2 CLR
08:55 20.1 °C 8.4 °C 1015.8 hPa Calm     47 % 0.0 mm 352.0 W/m2 CLR
09:00 20.2 °C 7.8 °C 1015.5 hPa Calm     45 % 0.0 mm 366.0 W/m2 CLR
09:05 20.4 °C 8.1 °C 1015.8 hPa Calm     45 % 0.0 mm 383.0 W/m2 CLR
09:10 20.9 °C 8.2 °C 1015.5 hPa Calm     44 % 0.0 mm 399.0 W/m2 CLR
09:15 21.6 °C 8.1 °C 1015.5 hPa Calm     42 % 0.0 mm 417.0 W/m2 CLR
09:20 21.8 °C 7.9 °C 1015.5 hPa Calm     41 % 0.0 mm 432.0 W/m2 CLR
09:25 22.1 °C 8.2 °C 1015.5 hPa Calm     41 % 0.0 mm 445.0 W/m2 CLR
09:30 22.6 °C 7.9 °C 1015.5 hPa Calm     39 % 0.0 mm 461.0 W/m2 CLR
09:35 23.3 °C 8.6 °C 1015.5 hPa Calm     39 % 0.0 mm 478.0 W/m2 CLR
09:40 23.9 °C 8.3 °C 1015.5 hPa Calm     37 % 0.0 mm 494.0 W/m2 CLR
09:45 24.2 °C 7.7 °C 1015.5 hPa Calm     35 % 0.0 mm 510.0 W/m2 CLR
09:50 24.3 °C 7.9 °C 1015.5 hPa Calm     35 % 0.0 mm 529.0 W/m2 CLR
09:55 24.7 °C 8.7 °C 1015.5 hPa Calm     36 % 0.0 mm 540.0 W/m2 CLR
10:00 25.1 °C 8.5 °C 1015.5 hPa Calm     35 % 0.0 mm 557.0 W/m2 CLR
10:05 25.3 °C 8.3 °C 1015.5 hPa Calm     34 % 0.0 mm 571.0 W/m2 CLR
10:10 25.6 °C 9.0 °C 1015.5 hPa Calm     35 % 0.0 mm 587.0 W/m2 CLR
10:15 25.8 °C 8.8 °C 1015.1 hPa ENE 6.4 km/h 6.4 km/h 34 % 0.0 mm 601.0 W/m2 CLR
10:20 26.2 °C 8.6 °C 1015.1 hPa Calm     33 % 0.0 mm 617.0 W/m2 CLR
10:25 26.6 °C 8.1 °C 1015.1 hPa Calm     31 % 0.0 mm 629.0 W/m2 CLR
10:30 26.9 °C 8.4 °C 1015.1 hPa Calm     31 % 0.0 mm 642.0 W/m2 CLR
10:35 27.3 °C 7.7 °C 1015.1 hPa Calm     29 % 0.0 mm 659.0 W/m2 CLR
10:40 27.6 °C 7.9 °C 1015.1 hPa Calm     29 % 0.0 mm 671.0 W/m2 CLR
10:45 27.8 °C 7.1 °C 1015.1 hPa Calm     27 % 0.0 mm 686.0 W/m2 CLR
10:50 27.9 °C 7.2 °C 1014.8 hPa Calm     27 % 0.0 mm 698.0 W/m2 CLR
10:55 28.1 °C 7.9 °C 1014.8 hPa ENE 1.9 km/h   28 % 0.0 mm 712.0 W/m2 CLR
11:00 28.5 °C 7.7 °C 1014.8 hPa Calm     27 % 0.0 mm 722.0 W/m2 CLR
11:05 28.8 °C 7.4 °C 1014.8 hPa Calm     26 % 0.0 mm 737.0 W/m2 CLR
11:10 29.0 °C 8.1 °C 1014.8 hPa ENE 5.6 km/h 5.6 km/h 27 % 0.0 mm 747.0 W/m2 CLR
11:15 29.1 °C 8.2 °C 1014.4 hPa ESE 3.7 km/h 3.7 km/h 27 % 0.0 mm 759.0 W/m2 CLR
11:18 29.2 °C 8.3 °C 1014.4 hPa Calm     27 % 0.0 mm 765.0 W/m2 CLR
11:23 29.3 °C 8.4 °C 1014.4 hPa ENE 7.4 km/h 7.4 km/h 27 % 0.0 mm 775.0 W/m2 CLR
11:28 29.4 °C 8.4 °C 1014.4 hPa North 5.6 km/h   27 % 0.0 mm 788.0 W/m2 CLR
11:33 29.4 °C 9.0 °C 1014.4 hPa ENE 6.4 km/h 6.4 km/h 28 % 0.0 mm 800.0 W/m2 CLR
11:38 29.6 °C 9.2 °C 1014.4 hPa NE 11.1 km/h 11.1 km/h 28 % 0.0 mm 807.0 W/m2 CLR
11:43 29.4 °C 9.0 °C 1014.1 hPa NNE 11.1 km/h 11.1 km/h 28 % 0.0 mm 816.0 W/m2 CLR
11:48 29.4 °C 9.6 °C 1014.1 hPa ENE 14.8 km/h 14.8 km/h 29 % 0.0 mm 826.0 W/m2 CLR
11:53 29.5 °C 10.1 °C 1014.1 hPa NNE 13.0 km/h 13.0 km/h 30 % 0.0 mm 837.0 W/m2 CLR
11:58 29.6 °C 9.7 °C 1014.1 hPa ENE 13.0 km/h 13.0 km/h 29 % 0.0 mm 846.0 W/m2 CLR
12:03 29.4 °C 9.6 °C 1014.1 hPa ENE 11.3 km/h 11.3 km/h 29 % 0.0 mm 849.0 W/m2 CLR
12:08 29.7 °C 9.7 °C 1014.1 hPa NE 14.8 km/h 14.8 km/h 29 % 0.0 mm 860.0 W/m2 CLR
12:13 29.9 °C 9.9 °C 1014.1 hPa NE 3.2 km/h 3.4 km/h 29 % 0.0 mm 868.0 W/m2 CLR
12:18 30.2 °C 9.7 °C 1014.1 hPa ENE 9.3 km/h 9.3 km/h 28 % 0.0 mm 874.0 W/m2 CLR
12:23 30.4 °C 9.3 °C 1014.1 hPa Calm     27 % 0.0 mm 882.0 W/m2 CLR
12:28 30.7 °C 9.0 °C 1014.1 hPa NE 9.3 km/h 9.3 km/h 26 % 0.0 mm 891.0 W/m2 CLR
12:33 30.7 °C 7.8 °C 1013.8 hPa Calm     24 % 0.0 mm 900.0 W/m2 CLR
12:38 30.5 °C 8.8 °C 1013.8 hPa NE 11.1 km/h 11.1 km/h 26 % 0.0 mm 907.0 W/m2 CLR
12:43 30.6 °C 9.5 °C 1013.8 hPa ENE 11.1 km/h 11.1 km/h 27 % 0.0 mm 911.0 W/m2 CLR
12:48 30.9 °C 9.2 °C 1013.8 hPa North 9.7 km/h 9.7 km/h 26 % 0.0 mm 919.0 W/m2 CLR
12:53 30.7 °C 9.0 °C 1013.8 hPa NNE 6.4 km/h 6.4 km/h 26 % 0.0 mm 921.0 W/m2 CLR
12:58 30.9 °C 9.2 °C 1013.8 hPa NNE 9.3 km/h 9.3 km/h 26 % 0.0 mm 925.0 W/m2 CLR
13:03 31.2 °C 8.2 °C 1013.4 hPa ENE 11.1 km/h 11.1 km/h 24 % 0.0 mm 928.0 W/m2 CLR
13:08 31.3 °C 8.3 °C 1013.4 hPa NNE 9.7 km/h 9.7 km/h 24 % 0.0 mm 935.0 W/m2 CLR
13:13 31.5 °C 7.8 °C 1013.4 hPa North 3.7 km/h   23 % 0.0 mm 940.0 W/m2 CLR
13:18 31.8 °C 8.1 °C 1013.4 hPa East 8.0 km/h 8.0 km/h 23 % 0.0 mm 942.0 W/m2 CLR
13:23 31.7 °C 8.0 °C 1013.1 hPa East 9.7 km/h 9.7 km/h 23 % 0.0 mm 944.0 W/m2 CLR
13:28 31.6 °C 7.9 °C 1013.1 hPa NE 11.1 km/h 11.1 km/h 23 % 0.0 mm 946.0 W/m2 CLR
13:33 31.8 °C 8.1 °C 1013.1 hPa ENE 14.8 km/h 14.8 km/h 23 % 0.0 mm 944.0 W/m2 CLR
13:38 32.0 °C 7.6 °C 1013.1 hPa Calm   1.0 km/h 22 % 0.0 mm 946.0 W/m2 CLR
13:44 32.2 °C 7.8 °C 1013.1 hPa Calm     22 % 0.0 mm 949.0 W/m2 CLR
13:49 32.4 °C 7.9 °C 1013.1 hPa ENE 11.1 km/h 11.1 km/h 22 % 0.0 mm 953.0 W/m2 CLR
13:54 32.4 °C 7.3 °C 1013.1 hPa NE 11.1 km/h 11.1 km/h 21 % 0.0 mm 951.0 W/m2 CLR
13:59 32.6 °C 7.4 °C 1012.8 hPa ENE 18.5 km/h 18.5 km/h 21 % 0.0 mm 949.0 W/m2 CLR
14:04 32.6 °C 7.4 °C 1012.8 hPa NE 11.1 km/h 11.1 km/h 21 % 0.0 mm 947.0 W/m2 CLR
14:09 32.5 °C 7.3 °C 1012.8 hPa NNW 9.3 km/h 9.3 km/h 21 % 0.0 mm 946.0 W/m2 CLR
14:14 32.5 °C 7.3 °C 1012.8 hPa NNW 7.4 km/h 7.4 km/h 21 % 0.0 mm 942.0 W/m2 CLR
14:19 32.3 °C 7.2 °C 1012.8 hPa West 11.1 km/h 11.1 km/h 21 % 0.0 mm 942.0 W/m2 CLR
14:24 32.7 °C 7.6 °C 1012.4 hPa NE 13.0 km/h 13.0 km/h 21 % 0.0 mm 940.0 W/m2 CLR
14:29 33.0 °C 7.1 °C 1012.4 hPa ENE 16.7 km/h 16.7 km/h 20 % 0.0 mm 940.0 W/m2 CLR
14:34 32.7 °C 6.8 °C 1012.4 hPa Calm   0.3 km/h 20 % 0.0 mm 935.0 W/m2 CLR
14:39 33.0 °C 7.1 °C 1012.4 hPa East 11.1 km/h 11.1 km/h 20 % 0.0 mm 935.0 W/m2 CLR
14:44 32.9 °C 6.9 °C 1012.4 hPa ENE 18.5 km/h 18.5 km/h 20 % 0.0 mm 930.0 W/m2 CLR
14:49 32.8 °C 6.1 °C 1012.4 hPa Calm     19 % 0.0 mm 930.0 W/m2 CLR
14:54 32.7 °C 6.1 °C 1012.1 hPa Calm     19 % 0.0 mm 925.0 W/m2 CLR
14:59 32.8 °C 6.2 °C 1012.1 hPa South 5.6 km/h 5.6 km/h 19 % 0.0 mm 919.0 W/m2 CLR
15:04 32.8 °C 6.2 °C 1012.1 hPa Calm     19 % 0.0 mm 916.0 W/m2 CLR
15:09 33.1 °C 7.2 °C 1012.1 hPa WNW 5.6 km/h 5.6 km/h 20 % 0.0 mm 911.0 W/m2 CLR
15:14 33.5 °C 6.7 °C 1011.7 hPa NNE 5.6 km/h 5.6 km/h 19 % 0.0 mm 904.0 W/m2 CLR
15:19 33.7 °C 6.1 °C 1012.1 hPa ESE 7.4 km/h 7.4 km/h 18 % 0.0 mm 896.0 W/m2 CLR
15:24 33.4 °C 5.8 °C 1011.7 hPa ENE 16.7 km/h 16.7 km/h 18 % 0.0 mm 891.0 W/m2 CLR
15:29 33.3 °C 6.6 °C 1011.7 hPa ESE 5.6 km/h 5.6 km/h 19 % 0.0 mm 884.0 W/m2 CLR
15:34 33.5 °C 5.9 °C 1011.7 hPa East 13.0 km/h 13.0 km/h 18 % 0.0 mm 875.0 W/m2 CLR
15:39 33.5 °C 6.7 °C 1011.7 hPa East 3.7 km/h 3.7 km/h 19 % 0.0 mm 872.0 W/m2 CLR
15:44 33.8 °C 6.2 °C 1011.7 hPa North 9.3 km/h 9.3 km/h 18 % 0.0 mm 858.0 W/m2 CLR
15:49 33.8 °C 6.2 °C 1011.7 hPa ENE 11.1 km/h 11.1 km/h 18 % 0.0 mm 851.0 W/m2 CLR
15:54 33.8 °C 6.2 °C 1011.4 hPa ENE 9.3 km/h 9.3 km/h 18 % 0.0 mm 837.0 W/m2 CLR
16:04 33.6 °C 6.8 °C 1011.4 hPa ENE 5.6 km/h 5.6 km/h 19 % 0.0 mm 819.0 W/m2 CLR
16:09 33.5 °C 7.4 °C 1011.4 hPa ENE 13.0 km/h 13.0 km/h 20 % 0.0 mm 810.0 W/m2 CLR
16:14 33.2 °C 7.2 °C 1011.1 hPa SSE 13.0 km/h 13.0 km/h 20 % 0.0 mm 798.0 W/m2 CLR
16:19 33.1 °C 7.8 °C 1011.1 hPa East 18.5 km/h 18.5 km/h 21 % 0.0 mm 784.0 W/m2 CLR
16:24 33.1 °C 7.2 °C 1011.1 hPa ENE 9.3 km/h 9.3 km/h 20 % 0.0 mm 775.0 W/m2 CLR
16:29 33.3 °C 7.3 °C 1011.1 hPa East 19.3 km/h 19.3 km/h 20 % 0.0 mm 768.0 W/m2 CLR
16:34 33.0 °C 7.8 °C 1011.4 hPa East 13.0 km/h 13.0 km/h 21 % 0.0 mm 758.0 W/m2 CLR
16:39 33.2 °C 7.9 °C 1011.1 hPa South 14.8 km/h 14.8 km/h 21 % 0.0 mm 744.0 W/m2 CLR
16:44 32.9 °C 8.4 °C 1011.1 hPa East 18.5 km/h 18.5 km/h 22 % 0.0 mm 731.0 W/m2 CLR
16:49 32.7 °C 8.9 °C 1011.1 hPa ESE 20.4 km/h 20.4 km/h 23 % 0.0 mm 721.0 W/m2 CLR
16:54 32.6 °C 8.8 °C 1011.1 hPa East 13.0 km/h 13.0 km/h 23 % 0.0 mm 707.0 W/m2 CLR
16:59 32.7 °C 8.2 °C 1011.1 hPa ESE 11.3 km/h 11.3 km/h 22 % 0.0 mm 691.0 W/m2 CLR
17:04 32.7 °C 8.8 °C 1011.1 hPa SE 16.7 km/h 16.7 km/h 23 % 0.0 mm 680.0 W/m2 CLR
17:09 32.6 °C 8.8 °C 1011.1 hPa ESE 11.1 km/h 11.1 km/h 23 % 0.0 mm 670.0 W/m2 CLR
17:14 32.7 °C 8.2 °C 1011.1 hPa ESE 18.5 km/h 18.5 km/h 22 % 0.0 mm 659.0 W/m2 CLR
17:16 32.7 °C 8.2 °C 1011.1 hPa SE 11.1 km/h 11.1 km/h 22 % 0.0 mm 652.0 W/m2 CLR
17:21 32.6 °C 8.1 °C 1011.1 hPa SE 11.3 km/h 11.3 km/h 22 % 0.0 mm 636.0 W/m2 CLR
17:27 32.4 °C 8.6 °C 1011.1 hPa SE 5.6 km/h   23 % 0.0 mm 628.0 W/m2 CLR
17:31 32.5 °C 8.7 °C 1011.1 hPa SE 14.5 km/h 14.5 km/h 23 % 0.0 mm 612.0 W/m2 CLR
17:36 32.6 °C 8.1 °C 1011.1 hPa ESE 18.5 km/h 18.5 km/h 22 % 0.0 mm 594.0 W/m2 CLR
17:42 32.7 °C 8.2 °C 1011.1 hPa SE 14.8 km/h 14.8 km/h 22 % 0.0 mm 582.0 W/m2 CLR
17:47 32.6 °C 8.1 °C 1011.1 hPa East 11.1 km/h 11.1 km/h 22 % 0.0 mm 570.0 W/m2 CLR
17:52 32.6 °C 8.1 °C 1010.7 hPa SE 11.1 km/h 11.1 km/h 22 % 0.0 mm 554.0 W/m2 CLR
17:57 32.4 °C 8.0 °C 1010.7 hPa SSE 14.8 km/h 14.8 km/h 22 % 0.0 mm 541.0 W/m2 CLR
18:02 32.6 °C 8.1 °C 1011.1 hPa ESE 9.3 km/h 9.3 km/h 22 % 0.0 mm 524.0 W/m2 CLR
18:07 32.6 °C 8.1 °C 1010.7 hPa ESE 14.8 km/h 14.8 km/h 22 % 0.0 mm 510.0 W/m2 CLR
18:10 32.5 °C 8.1 °C 1010.7 hPa SE 17.7 km/h 17.7 km/h 22 % 0.0 mm 501.0 W/m2 CLR
18:15 32.1 °C 7.7 °C 1010.7 hPa ESE 16.7 km/h 16.7 km/h 22 % 0.0 mm 487.0 W/m2 CLR
18:16 32.1 °C 7.7 °C 1010.7 hPa East 16.7 km/h 16.7 km/h 22 % 0.0 mm 487.0 W/m2 CLR
18:21 32.0 °C 8.3 °C 1010.7 hPa SSE 16.1 km/h 16.1 km/h 23 % 0.0 mm 473.0 W/m2 CLR
18:26 31.9 °C 7.6 °C 1010.7 hPa ESE 18.5 km/h 18.5 km/h 22 % 0.0 mm 455.0 W/m2 CLR
18:31 31.9 °C 7.5 °C 1010.7 hPa East 12.9 km/h 12.9 km/h 22 % 0.0 mm 439.0 W/m2 CLR
18:36 31.9 °C 7.5 °C 1010.7 hPa SE 22.2 km/h 22.2 km/h 22 % 0.0 mm 427.0 W/m2 CLR
18:41 31.9 °C 7.6 °C 1010.7 hPa ESE 14.8 km/h 14.8 km/h 22 % 0.0 mm 413.0 W/m2 CLR
18:46 31.8 °C 7.4 °C 1010.7 hPa ESE 18.5 km/h 18.5 km/h 22 % 0.0 mm 397.0 W/m2 CLR
18:51 31.7 °C 7.3 °C 1010.7 hPa ESE 24.1 km/h 24.1 km/h 22 % 0.0 mm 378.0 W/m2 CLR
18:56 31.5 °C 7.2 °C 1010.4 hPa ESE 18.5 km/h 18.5 km/h 22 % 0.0 mm 364.0 W/m2 CLR
19:01 31.4 °C 7.2 °C 1010.4 hPa ESE 18.5 km/h 18.5 km/h 22 % 0.0 mm 348.0 W/m2 CLR
19:02 31.4 °C 7.2 °C 1010.4 hPa SE 18.5 km/h 18.5 km/h 22 % 0.0 mm 345.0 W/m2 CLR
19:07 31.4 °C 7.1 °C 1010.4 hPa SE 14.8 km/h 14.8 km/h 22 % 0.0 mm 329.0 W/m2 CLR
19:12 31.4 °C 7.1 °C 1010.4 hPa ESE 18.5 km/h 18.5 km/h 22 % 0.0 mm 311.0 W/m2 CLR
19:17 31.2 °C 6.9 °C 1010.4 hPa SE 17.7 km/h 17.7 km/h 22 % 0.0 mm 299.0 W/m2 CLR
19:22 31.0 °C 6.8 °C 1010.4 hPa ESE 18.5 km/h 18.5 km/h 22 % 0.0 mm 281.0 W/m2 CLR
19:27 31.0 °C 7.4 °C 1010.4 hPa ESE 11.1 km/h 11.1 km/h 23 % 0.0 mm 264.0 W/m2 CLR
19:32 30.9 °C 6.7 °C 1010.4 hPa SSE 19.3 km/h 19.3 km/h 22 % 0.0 mm 246.0 W/m2 CLR
19:37 30.7 °C 7.2 °C 1010.4 hPa ESE 14.8 km/h 14.8 km/h 23 % 0.0 mm 230.0 W/m2 CLR
19:42 30.6 °C 6.4 °C 1010.4 hPa SSE 18.5 km/h 18.5 km/h 22 % 0.0 mm 214.0 W/m2 CLR
19:47 30.5 °C 6.4 °C 1010.4 hPa SE 14.5 km/h 14.5 km/h 22 % 0.0 mm 199.0 W/m2 CLR
19:52 30.4 °C 5.6 °C 1010.7 hPa SE 14.8 km/h 14.8 km/h 21 % 0.0 mm 178.0 W/m2 CLR
19:53 30.4 °C 5.6 °C 1010.7 hPa SE 16.1 km/h 16.1 km/h 21 % 0.0 mm 178.0 W/m2 CLR
19:58 30.3 °C 5.5 °C 1010.7 hPa SSE 18.5 km/h 18.5 km/h 21 % 0.0 mm 158.0 W/m2 CLR
20:03 30.2 °C 6.2 °C 1010.7 hPa SE 18.5 km/h 18.5 km/h 22 % 0.0 mm 141.0 W/m2 CLR
20:08 30.1 °C 6.0 °C 1010.4 hPa SE 14.5 km/h 14.5 km/h 22 % 0.0 mm 125.0 W/m2 CLR
20:13 29.9 °C 5.9 °C 1010.7 hPa SE 9.7 km/h 9.7 km/h 22 % 0.0 mm 109.0 W/m2 CLR
20:18 29.8 °C 5.8 °C 1010.7 hPa SE 11.1 km/h 11.1 km/h 22 % 0.0 mm 93.0 W/m2 CLR
20:23 29.7 °C 5.7 °C 1010.7 hPa SE 11.1 km/h 11.1 km/h 22 % 0.0 mm 79.0 W/m2 FEW
20:28 29.6 °C 6.3 °C 1010.7 hPa SE 11.1 km/h 11.1 km/h 23 % 0.0 mm 67.0 W/m2 FEW
20:33 29.5 °C 6.2 °C 1010.7 hPa SSE 14.8 km/h 14.8 km/h 23 % 0.0 mm 56.0 W/m2 SCT
20:38 29.4 °C 6.1 °C 1010.7 hPa SSE 9.7 km/h 10.6 km/h 23 % 0.0 mm 39.0 W/m2 BKN
20:43 29.2 °C 5.9 °C 1010.7 hPa SSE 14.8 km/h 14.8 km/h 23 % 0.0 mm 33.0 W/m2 BKN
20:48 29.1 °C 5.2 °C 1010.7 hPa SSE 9.3 km/h 9.3 km/h 22 % 0.0 mm 26.0 W/m2 BKN
20:53 28.9 °C 5.7 °C 1011.1 hPa SSE 13.0 km/h 13.0 km/h 23 % 0.0 mm 19.0 W/m2 BKN
20:58 28.8 °C 5.6 °C 1011.1 hPa SE 7.4 km/h 7.4 km/h 23 % 0.0 mm 16.0 W/m2 BKN
21:03 28.6 °C 6.1 °C 1011.1 hPa SE 9.3 km/h 9.3 km/h 24 % 0.0 mm 14.0 W/m2 BKN
21:08 28.4 °C 6.5 °C 1011.1 hPa SSE 7.4 km/h 7.4 km/h 25 % 0.0 mm 11.0 W/m2 BKN
21:13 28.3 °C 6.9 °C 1011.1 hPa SSE 7.4 km/h 7.4 km/h 26 % 0.0 mm 7.0 W/m2 BKN
21:18 28.1 °C 6.8 °C 1011.1 hPa SSE 7.4 km/h 7.4 km/h 26 % 0.0 mm 0.0 W/m2 OVC
21:23 27.9 °C 6.7 °C 1011.1 hPa SSE 5.6 km/h 5.6 km/h 26 % 0.0 mm 0.0 W/m2 OVC
21:28 27.7 °C 7.0 °C 1011.1 hPa SSE 7.4 km/h 7.4 km/h 27 % 0.0 mm 0.0 W/m2 OVC
21:33 27.6 °C 7.4 °C 1011.4 hPa Calm     28 % 0.0 mm 0.0 W/m2 CLR
21:38 27.3 °C 7.2 °C 1011.4 hPa Calm     28 % 0.0 mm 0.0 W/m2 CLR
21:43 27.0 °C 7.9 °C 1011.4 hPa South 5.6 km/h 5.6 km/h 30 % 0.0 mm 0.0 W/m2 CLR
21:48 26.8 °C 7.7 °C 1011.7 hPa SSE 5.6 km/h 5.6 km/h 30 % 0.0 mm 0.0 W/m2 CLR
21:53 26.7 °C 7.7 °C 1011.7 hPa South 5.6 km/h 5.6 km/h 30 % 0.0 mm 0.0 W/m2 CLR
21:58 26.6 °C 7.6 °C 1011.7 hPa Calm     30 % 0.0 mm 0.0 W/m2 CLR
22:03 26.4 °C 7.4 °C 1011.7 hPa South 8.0 km/h 8.0 km/h 30 % 0.0 mm 0.0 W/m2 CLR
22:08 26.4 °C 7.4 °C 1011.7 hPa South 3.2 km/h 3.2 km/h 30 % 0.0 mm 0.0 W/m2 CLR
22:13 26.3 °C 7.3 °C 1011.7 hPa South 3.7 km/h 3.7 km/h 30 % 0.0 mm 0.0 W/m2 CLR
22:18 26.1 °C 7.2 °C 1011.7 hPa Calm     30 % 0.0 mm 0.0 W/m2 CLR
22:23 25.9 °C 7.1 °C 1012.1 hPa Calm     30 % 0.0 mm 0.0 W/m2 CLR
22:28 25.7 °C 6.8 °C 1012.1 hPa Calm     30 % 0.0 mm 0.0 W/m2 CLR
22:33 25.7 °C 6.8 °C 1012.1 hPa Calm     30 % 0.0 mm 0.0 W/m2 CLR
22:38 25.6 °C 6.2 °C 1012.1 hPa South 5.6 km/h 5.6 km/h 29 % 0.0 mm 0.0 W/m2 CLR
22:43 25.6 °C 6.7 °C 1012.1 hPa Calm     30 % 0.0 mm 0.0 W/m2 CLR
22:48 25.3 °C 6.5 °C 1012.1 hPa Calm     30 % 0.0 mm 0.0 W/m2 CLR
22:53 25.2 °C 6.3 °C 1012.1 hPa Calm     30 % 0.0 mm 0.0 W/m2 CLR
22:59 24.9 °C 6.7 °C 1012.1 hPa Calm     31 % 0.0 mm 0.0 W/m2 CLR
23:04 24.7 °C 6.4 °C 1012.1 hPa Calm     31 % 0.0 mm 0.0 W/m2 CLR
23:09 24.6 °C 6.3 °C 1012.1 hPa Calm     31 % 0.0 mm 0.0 W/m2 CLR
23:14 24.4 °C 6.6 °C 1012.1 hPa Calm     32 % 0.0 mm 0.0 W/m2 CLR
23:19 24.2 °C 6.5 °C 1012.1 hPa Calm     32 % 0.0 mm 0.0 W/m2 CLR
23:24 24.1 °C 6.3 °C 1012.1 hPa Calm     32 % 0.0 mm 0.0 W/m2 CLR
23:29 23.8 °C 6.1 °C 1012.4 hPa Calm     32 % 0.0 mm 0.0 W/m2 CLR
23:34 23.5 °C 6.3 °C 1012.4 hPa Calm     33 % 0.0 mm 0.0 W/m2 CLR
23:39 23.1 °C 5.9 °C 1012.4 hPa Calm     33 % 0.0 mm 0.0 W/m2 CLR
23:44 23.0 °C 5.8 °C 1012.4 hPa Calm     33 % 0.0 mm 0.0 W/m2 CLR
23:49 22.9 °C 5.8 °C 1012.4 hPa Calm     33 % 0.0 mm 0.0 W/m2 CLR
23:54 22.8 °C 5.7 °C 1012.4 hPa Calm     33 % 0.0 mm 0.0 W/m2 CLR
23:59 22.6 °C 6.4 °C 1012.4 hPa Calm     35 % 0.0 mm 0.0 W/m2 CLR
Lo Temps de Massalio
Compliments of Weather Underground - 1.25 mb